OPS 4682 DEB, 14715

Orbit data source: Space-Track

OPS 4682 DEB, 14715 is space debris in LEO originally from a launch on Sat, 03 Apr 1965 UTC launched from the Air Force Western Test Range (AFWTR). Debris objects in space refer to the collection of defunct objects orbiting the Earth. Examples of debris include non-operational satellites, rocket bodies, and fragments generated from explosions, collisions, or faulty payload assembly.

Loading next visibility...
Identifier
14715, 1965-027N
Orbit
LEO
Country
Flag of USUS
Related business
Manufacturer
Unknown
Mission
Spacecraft
Bus & Motor
Unknown
Mass
Unknown
Launch date (UTC)
1965-04-03 (61 years ago)
Launch vehicle
Unknown
Launch site
Air Force Western Test Range (AFWTR)
Object type
Payload
Rocket body
Debris
Shape & HBR
Unknown shape, 0.1 m
Radar Cross Section
Medium (>0.1 m² and <1 m²)

Expand to show TLE details & history
Last TLE update: 3 days ago

TLE from 3 days ago
0 OPS 4682 DEB
1 14715U 65027N   26217.12474402 -.00000675  00000-0 -23774-2 0  9995
2 14715  90.2350 350.1187 0034234   7.7357 169.6223 12.96542695 15137
Epoch: 2026-08-05T02:59Z
TLE epoch observation values (Epoch: 2026-08-05T02:59:37.883Z)
Latitude
2.47411°
Longitude
171.53731°
Altitude
1,304.036 km
Speed
7.193 km/s
True Right ascension
11h 20m 30s
True Declination
2° 27' 37"
Sunlit
Object was in daylight at epoch
Visualization orbit readout
Latitude
Unknown
Longitude
Unknown
Altitude
Unknown
Speed
Unknown
Apparent Right ascension
Unknown
Apparent Declination
Unknown
Sunlit
N/A
Visualization observer readout
Local Sidereal Time
21:58:45
Azimuth
Unknown
Elevation
Unknown
Doppler factor
Unknown
Orbital elements
Apogee altitude
1,298.987 km
Perigee altitude
1,246.603 km
Semi-major axis
7,650.932 km
Eccentricity
0.00342
Inclination
90.235°
RAAN
350.1187°
Arg. of periapsis
7.7357°
True anomaly
169.69267°
Mean anomaly
169.6223°
Eccentric anomaly
169.65751°
Mean motion
3.24318 °/min
Orbital period
111 mins
BSTAR
-0.0023774
Loading maneuver chart data...
Computing Atmospheric mass density...
Loading historical data...
Loading historical data...
Loading historical data...
Loading historical data...
Loading historical data...
Loading historical data...
Loading historical data...

Documentation

Showing up to 5 results
|